Weather Service Report


193 
ASUS44 KOUN 261300
RWROK 

WEATHER ROUNDUP FOR OKLAHOMA
NATIONAL WEATHER SERVICE NORMAN OK
800 AM CDT TUE JUL 26 2016

NOTE: "FAIR" INDICATES FEW OR NO CLOUDS BELOW 12,000 FEET WITH NO
      SIGNIFICANT WEATHER AND/OR OBSTRUCTIONS TO VISIBILITY.

OKZ001>007-009>012-014-015-017-261400-
NORTHWEST OKLAHOMA AND THE PANHANDLE
  
CITY           SKY/WX    TMP DP  RH WIND       PRES   REMARKS
GAGE           SUNNY     73  69  87 NE5       30.06S                  
GUYMON         CLOUDY    70  68  93 S5        30.12R                  
ENID/WOODRING  PTSUNNY   75  73  94 N6        30.01R                  
$$

OKZ016-021>023-033>039-044-045-261400-
SOUTHWEST OKLAHOMA
  
CITY           SKY/WX    TMP DP  RH WIND       PRES   REMARKS
LAWTON/REGL    MOSUNNY   77  72  84 E7        30.00R                  
FREDERICK      PTSUNNY   78  73  84 E8        29.98R                  
CLINTON        MOSUNNY   75  71  87 E5        30.05S                  
HOBART         CLOUDY    75  73  93 NE3       30.03R FOG              
$$

OKZ018>020-024>031-261400-
CENTRAL OKLAHOMA
  
CITY           SKY/WX    TMP DP  RH WIND       PRES   REMARKS
OKLAHOMA CITY  CLOUDY    74  72  93 SE6       30.02R                  
OKC/WILEY POST CLOUDY    76  72  87 E5        30.01S                  
STILLWATER     CLOUDY    75  73  93 NE5       30.01S                  
GUTHRIE        PTSUNNY   75  73  93 S5        30.00S                  
$$

OKZ008-013-054>072-261400-
NORTHEAST OKLAHOMA
  
CITY           SKY/WX    TMP DP  RH WIND       PRES   REMARKS
TULSA          CLOUDY    78  76  93 NE6       29.98R                  
TULSA/JONES    MOSUNNY   80  76  87 E5        29.99R                  
PONCA CITY     CLOUDY    76  73  91 E8        30.01S                  
BARTLESVILLE   CLOUDY    76  73  91 N3        30.02R                  
MUSKOGEE       MOSUNNY   78  75  90 CALM      30.00S                  
$$

OKZ032-040>043-046>053-073>077-261400-
SOUTH CENTRAL/SOUTHEAST OKLAHOMA
  
CITY           SKY/WX    TMP DP  RH WIND       PRES   REMARKS
MCALESTER      CLOUDY    80  74  81 NE5       30.00R                  
$$

  

Return to Home page


Western Regional Climate Center, wrcc@dri.edu